AirNav   Everest Fuels
 
 1109 users online  

1S9 Chewelah Municipal Airport
Chewelah, Washington, USA

GOING TO CHEWELAH?


FAA INFORMATION EFFECTIVE 15 JULY 2021

Location

FAA Identifier: 1S9
Lat/Long: 48-18-50.2495N 117-44-36.3335W
48-18.837492N 117-44.605558W
48.3139582,-117.7434260
(estimated)
Elevation: 2084 ft. / 635 m (estimated)
Variation: 20E (1985)
Time zone: UTC -7 (UTC -8 during Standard Time)
Zip code: 99109

Airport Operations

Airport use: Open to the public
Activation date: 01/1979
Control tower: no
ARTCC: SEATTLE CENTER
FSS: SEATTLE FLIGHT SERVICE STATION
NOTAMs facility: SEA (NOTAM-D service available)
Attendance: UNATNDD
Wind indicator: lighted
Segmented circle: yes
Lights: ACTVT MIRL RY 17/35 - CTAF. PAPI RY 17 AND RY 35 OPER CONTINUOUSLY.
Beacon: white-green (lighted land airport)
Operates sunset to sunrise.

Airport Communications

CTAF: 122.9
WX AWOS-3 at 63S (15 nm N): 119.275 (509-684-8994)

Nearby radio navigation aids

NDB name  Hdg/Dist  Freq  Var  ID
DEER PARK313/24.336516EDPY -.. .--. -.--
IONE188/27.137921EION .. --- -.

Airport Services

Parking: tiedowns
Airframe service: MINOR
Powerplant service: MINOR
Bottled oxygen: NONE
Bulk oxygen: NONE

Runway Information

Runway 17/35

Dimensions: 3537 x 48 ft. / 1078 x 15 m
Surface: asphalt, in good condition
Runway edge lights: medium intensity
Runway edge markings: MARKINGS FADED.
RUNWAY 17  RUNWAY 35
Latitude: 48-19.124150N48-18.550833N
Longitude: 117-44.531783W117-44.679333W
Traffic pattern: rightleft
Displaced threshold: 230 ft.87 ft.
Markings: basic, in poor conditionbasic, in poor condition
Visual slope indicator: 2-light PAPI on right (4.00 degrees glide path)2-light PAPI on left (3.00 degrees glide path)
Obstructions: 11 ft. tree, 275 ft. from runway, 63 ft. right of centerline, 6:1 slope to clear
3 FT DITCH +1 FT TO +3 FT ROCKS & RD 56 FT FM THR; 77 FT L, +14 FT TREES 200 FT FM THR, AND 10 FT SIGN, 86 FT R, 53 FT FM THR.
none

Airport Ownership and Management from official FAA records

Ownership: Publicly-owned
Owner: CITY OF CHEWELAH
PO BOX 258
CHEWELAH, WA 99109
Phone 509-935-8311
Manager: TYRONE BRYANT
139 RICHMOND LANE
CHEWELAH, WA 99109
Phone (509) 936-0234

Airport Operational Statistics

Aircraft based on the field: 17
Single engine airplanes: 16
Multi engine airplanes: 1
    
Aircraft operations: avg 96/week *
60% local general aviation
40% transient general aviation
* for 12-month period ending 31 December 2018

Additional Remarks

ALL PATTERNS TO THE WEST.
DEER & WILDLIFE ON & INVOF ARPT.
FOR CD CTC SEATTLE ARTCC AT 253-351-3694.
LODGING & FOOD AVBL AT APRT.

Instrument Procedures

There are no published instrument procedures at 1S9.

Some nearby airports with instrument procedures:

KDEW - Deer Park Airport (24 nm SE)
KSFF - Felts Field Airport (41 nm SE)
KSKA - Fairchild Air Force Base (42 nm S)
KGEG - Spokane International Airport (43 nm S)
KSZT - Sandpoint Airport (47 nm E)
 
Loc | Ops | Rwys | IFR | FBO | Links
Com | Nav | Svcs | Stats | Notes
Area around 1S9 (Chewelah Municipal Airport)
 
Road maps at: MapQuest Bing Google
 
Aerial photo
WARNING: Photo may not be current or correct
Aerial photo of 1S9 (Chewelah Municipal Airport)
Photo by P.J. Reinders
Taken in September 2008

Do you have a better or more recent aerial photo of Chewelah Municipal Airport that you would like to share? If so, please send us your photo.

 
Sectional chart

 
Airport distance calculator
Flying to Chewelah Municipal Airport? Find the distance to fly.

From to 1S9

Sunrise and sunset
Times for 05-Aug-2021
 Local
(UTC-7)
 Zulu
(UTC)
Morning civil twilight04:5611:56
Sunrise05:3312:33
Sunset20:2103:21
Evening civil twilight20:5703:57

Current date and time
Zulu (UTC)  06-Aug-2021 00:15:24
Local (UTC-7)  05-Aug-2021 17:15:24
 
METAR
K63S 
14nm N 
052355Z AUTO 00000KT 10SM CLR 27/16 A2984 RMK A01
KDEW 
24nm SE 
052353Z AUTO 9SM CLR 28/11 A2986 RMK AO2 SLP097 T02780106 10306 20267 58004
TAF
KSFF 
42nm SE 
051936Z 0520/0618 20009KT P6SM VCTS FEW050 SCT080CB BKN150 TEMPO 0520/0522 5SM -SHRA FU BKN050 FM060100 19006KT P6SM VCSH SCT080 BKN150 FM060900 20010KT P6SM SCT150
KSKA 
42nm S 
051900Z 0519/0701 06010KT 9000 FU VCSH FEW050 SCT120 BKN180 QNH2981INS TEMPO 0519/0523 VRB12G20KT 6000 -TSRA SCT050 BKN120CB BECMG 0522/0523 18012G18KT 9000 HZ VCSH FEW050 BKN120 QNH2978INS BECMG 0602/0603 20009KT 9999 VCSH SCT060 BKN120 QNH2980INS BECMG 0608/0609 20009KT 9999 NSW FEW050 SCT100 QNH2981INS BECMG 0617/0618 24012G18KT 9999 SCT060 BKN100 QNH2990INS TX33/0523Z TN17/0612Z
KGEG 
43nm S 
052151Z 0522/0618 VRB05KT P6SM VCSH SCT050 BKN110 TEMPO 0522/0523 14010G25KT FM060000 19011G19KT 5SM FU VCSH SCT080 OVC150 FM060300 19010KT P6SM VCSH SCT080 BKN150 FM060900 20013KT P6SM SCT150
KCOE 
50nm SE 
051936Z 0520/0618 32006KT P6SM VCTS SCT080CB BKN150 TEMPO 0520/0522 5SM -SHRA FU BKN050 FM060100 16011G17KT P6SM VCSH SCT080 OVC150 FM060400 18007KT P6SM VCSH BKN150 FM061000 19008KT P6SM BKN200
NOTAMs
Click for the latest NOTAMs
NOTAMs are issued by the DoD/FAA and will open in a separate window not controlled by AirNav.

 

 
 

Would you like to see your business listed on this page?

 If your business provides an interesting product or service to pilots, flight crews, aircraft, or users of the Chewelah Municipal Airport, you should consider listing it here.  To start the listing process, click on the button below
 
Add a business
 

Other Pages about Chewelah Municipal Airport

Update a link
 
Copyright © AirNav, LLC. All rights reserved. Privacy Policy  Contact